{"data":{"norad_id":56895,"epoch":"2026-05-25T01:03:42.653952Z","epoch_age_seconds":81511,"freshness":"FRESH","line1":"1 56895U 23083V   26145.04424368 -.00002403  00000+0 -77836-4 0  9993","line2":"2 56895  43.0052  17.7526 0001653 250.4999 109.5674 15.27573977163263","mean_motion":15.27573977,"eccentricity":0.0001653,"inclination_deg":43.0052,"raan_deg":17.7526,"arg_perigee_deg":250.4999,"mean_anomaly_deg":109.5674,"bstar":-7.7836e-5,"rev_number":16326,"period_min":94.267120393607,"perigee_km":481.9329740848,"apogee_km":484.20128817055,"semimajor_km":6861.2041311277,"source":"CELESTRAK","updated_at":"2026-05-25T13:38:18.170991Z"}}